Location: Kershaw
(34.5481°N, 80.5823°W)
Time: 20:30:02
(UTC+00:00)

Vanguard 2 Rocket - Pass Details

Date: 06 October 2022
Orbit: 555 x 3321 km, 32.9° (Epoch: 28 November)

Event Time Altitude Azimuth Distance (km) Brightness Sun altitude
Exits shadow 09:59:23 11° 207° (SSW) 2,146 8.5 -17.6°
Drops below altitude 10° 09:59:58 10° 200° (SSW) 2,173 8.6 -17.4°
Sets 10:03:27 0° 167° (SSE) 2,838 9.6 -16.7°
